Weather History for Minot, ND

Change the Weather History Date:

Saturday, August 24, 2013

  Actual Average Record
Temperature  
Mean Temperature 78 °F 67 °F  
Max Temperature 88 °F 80 °F 101 °F (1996)
Min Temperature 67 °F 54 °F 28 °F (1915)
Cooling Degree Days 13 4  
Month to date cooling degree days 98 129  
Year to date cooling degree days 295 387  
Since 1 June cooling degree days 285 371  
Growing Degree Days 26 (Base 50)    
Moisture  
Dew Point 65 °F    
Average Humidity 68    
Maximum Humidity 93    
Minimum Humidity 43    
Precipitation  
Precipitation 0.05 in 0.06 in 0.90 in (1968)
Month to date precipitation 1.39 1.59  
Year to date precipitation 18.80 12.99  
Sea Level Pressure  
Sea Level Pressure 29.73 in    
Wind  
Wind Speed 5 mph (South)    
Max Wind Speed 16 mph    
Max Gust Speed 22 mph    
Visibility 9 miles    
Events Rain    
T = Trace of Precipitation, MM = Missing Value Source: NWS Daily Summary

Daily Weather History Graph

Daily Weather History Graph

Search for Another Location

Airport:

Trip Planner

Search our weather history database for the weather conditions in past years. The results will help you decide how hot, cold, wet, or windy it might be!

Date:

Astronomy

Aug. 24, 2013 Rise Set
Actual Time 6:52 AM CDT 8:41 PM CDT
Civil Twilight 6:18 AM CDT 9:14 PM CDT
Nautical Twilight 5:38 AM CDT 9:55 PM CDT
Astronomical Twilight 4:52 AM CDT 10:40 PM CDT
Moon 10:11 PM CDT (8/24) 11:17 AM CDT (8/24)
Length of Visible Light 14h 55m
Length of Day
13h 49m
Waning Gibbous, 84% of the Moon is Illuminated
Aug 24
Waning Gibbous
Aug 28
Last Quarter
Sep 5
New
Sep 12
First Quarter
Sep 19
Full

Hourly Weather History & Observations

Time (CDT) Temp. Heat Index Dew Point Humidity Pressure Visibility Wind Dir Wind Speed Gust Speed Precip Events Conditions
12:54 AM 71.1 °F - 66.0 °F 84% 29.73 in 10.0 mi ESE 6.9 mph - N/A   Clear
1:54 AM 72.0 °F - 64.9 °F 78% 29.72 in 10.0 mi ESE 6.9 mph - N/A   Clear
2:54 AM 70.0 °F - 64.9 °F 84% 29.72 in 10.0 mi ESE 5.8 mph - N/A   Clear
3:54 AM 69.1 °F - 64.9 °F 87% 29.70 in 10.0 mi East 5.8 mph - N/A   Clear
4:54 AM 70.0 °F - 66.0 °F 87% 29.70 in 8.0 mi ESE 3.5 mph - N/A   Clear
5:54 AM 68.0 °F - 64.9 °F 90% 29.69 in 8.0 mi Calm Calm - N/A   Clear
6:54 AM 66.9 °F - 64.9 °F 93% 29.69 in 7.0 mi East 4.6 mph - N/A   Clear
7:54 AM 71.1 °F - 66.9 °F 87% 29.70 in 8.0 mi SE 4.6 mph - N/A   Clear
8:54 AM 73.9 °F - 66.9 °F 79% 29.71 in 10.0 mi West 6.9 mph - N/A   Clear
9:54 AM 73.0 °F - 66.0 °F 79% 29.68 in 10.0 mi East 4.6 mph - 0.00 in Rain Light Rain
10:54 AM 79.0 °F - 64.9 °F 62% 29.70 in 10.0 mi Calm Calm - 0.00 in   Partly Cloudy
11:54 AM 73.9 °F - 64.9 °F 73% 29.74 in 8.0 mi West 11.5 mph - 0.01 in Rain Light Rain
12:54 PM 72.0 °F - 64.9 °F 78% 29.76 in 10.0 mi SSW 3.5 mph - 0.01 in Rain Light Rain
1:54 PM 72.0 °F - 66.0 °F 81% 29.73 in 6.0 mi Calm Calm - 0.02 in Rain Rain
2:54 PM 75.9 °F - 68.0 °F 76% 29.72 in 10.0 mi South 5.8 mph - 0.01 in   Mostly Cloudy
3:54 PM 81.0 °F 83.3 °F 66.9 °F 62% 29.73 in 10.0 mi South 8.1 mph - N/A   Partly Cloudy
4:54 PM 87.1 °F 88.3 °F 64.0 °F 46% 29.72 in 10.0 mi Variable 3.5 mph - N/A   Clear
5:54 PM 87.1 °F 87.8 °F 63.0 °F 44% 29.73 in 10.0 mi SW 8.1 mph - N/A   Clear
6:54 PM 86.0 °F 86.8 °F 63.0 °F 46% 29.73 in 10.0 mi SW 6.9 mph - N/A   Clear
7:54 PM 82.0 °F 83.0 °F 62.1 °F 51% 29.73 in 10.0 mi SSW 4.6 mph - N/A   Clear
8:54 PM 79.0 °F - 63.0 °F 58% 29.74 in 10.0 mi SW 6.9 mph - N/A   Clear
9:54 PM 75.0 °F - 61.0 °F 62% 29.77 in 10.0 mi SW 6.9 mph - N/A   Clear
10:54 PM 71.1 °F - 61.0 °F 70% 29.78 in 10.0 mi NNW 5.8 mph - N/A   Clear
11:54 PM 73.0 °F - 62.1 °F 68% 29.80 in 10.0 mi Calm Calm - N/A   Clear